Overview Statistics Trail Chart Weather Telemetry Raw packets
 

This is the latest recevied weather packets stored in our database for station/object N7IGG. If no packets are shown the sender has not sent any weather packets the latest 10 day(s).

<< 57 58 59 60 61 62 63 >>
Time Temp. Humidity Pressure Rain* Wind** Luminosity Snow
1777774880 23.33° C 49% 1013 hPa 0 mm - 57 W/m² -
1777774578 22.78° C 51% 1012.9 hPa 0 mm - 72 W/m² -
1777774274 23.33° C 49% 1012.7 hPa 0 mm - 79 W/m² -
1777773971 23.33° C 50% 1012.9 hPa 0 mm - 94 W/m² -
1777773669 22.78° C 49% 1013.1 hPa 0 mm - 103 W/m² -
1777773365 23.33° C 49% 1013 hPa 0 mm - 108 W/m² -
1777773062 23.33° C 48% 1012.7 hPa 0 mm - 121 W/m² -
1777772758 22.78° C 48% 1012.9 hPa 0 mm - 125 W/m² -
1777772456 23.33° C 48% 1013 hPa 0 mm - 138 W/m² -
1777772153 23.89° C 47% 1012.9 hPa 0 mm - 160 W/m² -
1777771851 23.89° C 48% 1012.9 hPa 0 mm - 165 W/m² -
1777771548 23.89° C 47% 1013 hPa 0 mm - 180 W/m² -
1777771253 23.33° C 48% 1013.2 hPa 0 mm - 177 W/m² -
1777770941 23.33° C 47% 1012.7 hPa 0 mm - 210 W/m² -
1777770638 23.89° C 47% 1012.8 hPa 0 mm - 218 W/m² -
1777770334 23.33° C 48% 1012.9 hPa 0 mm - 252 W/m² -
1777770032 23.89° C 48% 1013 hPa 0 mm - 257 W/m² -
1777769729 23.33° C 48% 1012.8 hPa 0 mm - 256 W/m² -
1777769426 23.89° C 49% 1013 hPa 0 mm - 229 W/m² -
1777769122 23.33° C 50% 1012.9 hPa 0 mm - 267 W/m² -
1777768821 23.33° C 50% 1013 hPa 0 mm - 256 W/m² -
1777768517 23.33° C 50% 1013 hPa 0 mm - 323 W/m² -
1777768214 22.78° C 50% 1013 hPa 0 mm - 329 W/m² -
1777767911 23.33° C 50% 1013.2 hPa 0 mm - 361 W/m² -
1777767608 23.89° C 50% 1013.2 hPa 0 mm - 357 W/m² -

* Rain latest hour (hover to see other rain measurements)
** Current wind speed in m/s (hover to see current wind gust speed)